Location: Carnières
(50.1682°N, 3.3474°E)
Time: 05:14:42
(UTC+00:00)

MOZ.5/SAFIR/RUBIN 5/SL-8 - Pass Details

Date: 15 August 2024
Orbit: 671 x 698 km, 98.3° (Epoch: 08 September)

Event Time Altitude Azimuth Distance (km) Brightness Sun altitude
Exits shadow 00:17:22 24° 98° (E) 1,428 5.3 -25.6°
Maximum altitude 00:19:01 30° 63° (ENE) 1,242 5.3 -25.6°
Drops below altitude 10° 00:23:08 10° 3° (N) 2,171 7.4 -25.5°
Sets 00:25:36 0° 353° (N) 3,096 8.4 -25.4°
